FW1937 Weather Reports


time (UTC)temp
F
wind
direction
speed
knots
gust
knots
rain 1hr
in
rain 24hr
in
rain mn
in
humidity
%
barometer
mb
20260510164223 62 101 1.7 5.2 0.00 0.13 0.13 70 1002.7
20260510163720 62 119 1.7 5.2 0.00 0.13 0.13 70 1002.9
20260510163223 62 85 0.9 3.5 0.00 0.13 0.13 70 1003.0
20260510162720 62 76 0.0 2.6 0.00 0.13 0.13 70 1003.0
20260510162223 62 76 0.9 2.6 0.00 0.13 0.13 70 1002.9
20260510161717 61 76 0.9 4.3 0.00 0.13 0.13 70 1002.9
20260510161220 61 43 0.9 4.3 0.00 0.13 0.13 71 1002.8
20260510160718 60 80 1.7 5.2 0.01 0.13 0.13 71 1002.9
20260510160221 60 108 1.7 5.2 0.01 0.13 0.13 72 1003.0
20260510155715 60 92 1.7 5.2 0.01 0.13 0.13 72 1009.4
20260510155214 59 103 2.6 7.0 0.01 0.13 0.13 72 1003.0
20260510154708 59 85 3.5 7.0 0.01 0.13 0.13 72 1003.1
20260510154208 59 136 2.6 6.1 0.02 0.13 0.13 73 1003.3
20260510153209 59 109 2.6 7.8 0.04 0.13 0.13 73 1003.5
20260510152708 59 106 1.7 6.1 0.05 0.13 0.13 73 1003.4
20260510152209 59 47 1.7 5.2 0.06 0.13 0.13 73 1003.0
20260510151708 58 42 2.6 6.1 0.06 0.13 0.13 73 1002.9
20260510151208 58 102 2.6 6.1 0.07 0.13 0.13 73 1003.5
20260510150208 58 96 2.6 6.1 0.07 0.12 0.12 74 1004.2
20260510145928 58 112 1.7 3.5 0.09 0.12 0.12 74 1004.2
20260510145208 58 126 0.9 2.6 0.12 0.12 0.12 74 1004.2
20260510144708 58 123 0.9 2.6 0.12 0.12 0.12 75 1004.3
20260510144209 58 123 0.9 4.3 0.11 0.11 0.11 76 1004.3
20260510143708 58 123 1.7 4.3 0.09 0.09 0.09 77 1004.5
20260510143208 58 134 1.7 3.5 0.09 0.09 0.09 78 1004.6
20260510142710 58 123 1.7 7.0 0.08 0.08 0.08 80 1004.7
20260510142208 58 188 2.6 7.0 0.06 0.06 0.07 81 1004.8
20260510141700 58 202 5.2 14.8 0.06 0.06 0.06 82 1004.9
20260510141200 59 236 7.0 14.8 0.06 0.06 0.06 84 1005.0
20260510140700 59 244 7.8 17.4 0.05 0.05 0.05 84 1004.9
20260510140200 61 284 7.8 17.4 0.05 0.05 0.05 84 1004.7
20260510135918 63 254 7.8 17.4 0.02 0.02 0.02 86 1004.5
20260510135708 63 254 7.8 17.4 0.02 0.02 0.02 86 1004.5
20260510135200 64 277 7.0 17.4 0.00 0.00 0.00 90 1004.4
20260510134700 65 201 4.3 11.3 0.00 0.00 0.00 93 1004.1
20260510134424 65 257 2.6 8.7 0.00 0.00 0.00 94 1003.4
20260510134213 65 257 2.6 8.7 0.00 0.00 0.00 94 1003.4
20260510133652 66 324 2.6 7.0 0.00 0.00 0.00 95 1003.1
20260510133151 67 337 1.7 4.3 0.00 0.00 0.00 95 1003.0
20260510132652 67 5 1.7 7.8 0.00 0.00 0.00 96 1002.7
20260510132151 67 25 2.6 7.8 0.00 0.00 0.00 98 1002.5
20260510131916 67 355 3.5 7.8 0.00 0.00 0.00 99 1002.4
20260510131655 67 355 3.5 7.8 0.00 0.00 0.00 99 1002.4
20260510130651 68 26 3.5 10.4 0.00 0.00 0.00 100 1002.3
20260510130151 68 330 4.3 10.4 0.00 0.00 0.00 100 1002.2
20260510125652 68 29 3.5 7.8 0.00 0.00 0.00 100 1002.1
20260510125151 69 355 2.6 7.8 0.00 0.00 0.00 99 1002.2
20260510124651 69 5 2.6 7.8 0.00 0.00 0.00 98 1008.4
20260510124414 69 19 2.6 7.8 0.00 0.00 0.00 97 1002.3
20260510123651 69 5 2.6 5.2 0.00 0.00 0.00 97 1002.3
20260510123151 69 24 3.5 7.8 0.00 0.00 0.00 97 1002.2
20260510122915 68 333 3.5 8.7 0.00 0.00 0.00 95 1002.3
20260510122700 68 333 3.5 8.7 0.00 0.00 0.00 95 1002.3
20260510122153 69 355 4.3 8.7 0.00 0.00 0.00 96 1002.3
20260510121651 69 0 5.2 10.4 0.00 0.00 0.00 93 1002.4
20260510121152 69 32 5.2 10.4 0.00 0.00 0.00 92 1002.3
20260510120651 70 348 3.5 8.7 0.00 0.00 0.00 92 1002.4
20260510120151 71 16 2.6 8.7 0.00 0.00 0.00 94 1002.5
20260510115920 72 348 2.6 5.2 0.00 0.00 0.00 92 1002.5
20260510115152 72 12 4.3 9.6 0.00 0.00 0.00 93 1002.6
20260510114651 72 5 4.3 9.6 0.00 0.00 0.00 92 1002.5
20260510114419 72 337 2.6 7.8 0.00 0.00 0.00 93 1002.6
20260510113652 72 287 2.6 8.7 0.00 0.00 0.00 94 1002.7
20260510113417 71 302 3.5 8.7 0.00 0.00 0.00 92 1002.7
20260510112653 71 331 5.2 11.3 0.00 0.00 0.00 92 1002.8
20260510112152 72 306 5.2 11.3 0.00 0.00 0.00 91 1002.8
20260510111152 72 171 6.1 11.3 0.00 0.00 0.00 90 1003.0
20260510110651 72 148 7.0 12.2 0.00 0.00 0.00 88 1003.2
20260510110151 73 128 6.1 12.2 0.00 0.00 0.00 90 1003.2
20260510105652 73 169 6.1 14.8 0.00 0.00 0.00 89 1003.3
20260510104651 72 108 6.1 11.3 0.00 0.00 0.00 93 1003.5
20260510104151 71 150 8.7 18.2 0.00 0.00 0.00 92 1003.5
20260510103651 71 249 9.6 18.2 0.00 0.00 0.00 92 1003.4
20260510103414 71 172 10.4 17.4 0.00 0.00 0.00 91 1003.5
20260510102920 71 130 8.7 17.4 0.00 0.00 0.00 91 1003.4
20260510102151 71 109 8.7 17.4 0.00 0.00 0.00 91 1003.5
20260510101651 71 145 7.0 17.4 0.00 0.00 0.00 92 1003.5
20260510101151 71 103 4.3 12.2 0.00 0.00 0.00 93 1003.5
20260510100651 71 167 3.5 9.6 0.00 0.00 0.00 93 1003.5
20260510100151 71 209 3.5 9.6 0.00 0.00 0.00 93 1003.5
20260510095922 71 213 3.5 13.9 0.00 0.00 0.00 93 1003.5
20260510095152 71 187 6.1 13.9 0.00 0.00 0.00 94 1003.5
20260510094917 71 156 7.8 14.8 0.00 0.00 0.00 92 1003.5
20260510094152 71 151 7.8 14.8 0.00 0.00 0.00 92 1003.5
20260510093651 71 142 7.0 13.9 0.00 0.00 0.00 93 1003.6
20260510093412 71 139 5.2 13.9 0.00 0.00 0.00 92 1003.6
20260510092908 71 130 5.2 13.0 0.00 0.00 0.00 93 1003.6
20260510092149 71 193 6.1 13.0 0.00 0.00 0.00 93 1003.6
20260510091649 70 185 6.1 13.0 0.00 0.00 0.00 94 1003.5
20260510090647 70 225 6.1 13.0 0.00 0.00 0.00 94 1003.6
20260510090411 70 223 5.2 13.0 0.00 0.00 0.00 94 1003.6
20260510085647 70 166 5.2 12.2 0.00 0.00 0.00 95 1003.6
20260510084647 69 202 6.1 12.2 0.00 0.00 0.00 96 1003.7
20260510084408 69 200 7.0 18.2 0.00 0.00 0.00 96 1003.6
20260510083647 69 192 7.8 18.2 0.00 0.00 0.00 97 1003.6
20260510083405 68 180 6.1 13.9 0.00 0.00 0.00 97 1003.5
20260510082647 68 173 6.1 13.9 0.00 0.00 0.00 98 1003.6
20260510081648 67 231 6.1 11.3 0.00 0.00 0.00 98 1003.6
20260510081407 67 199 6.1 13.0 0.00 0.00 0.00 98 1003.5
20260510080648 67 245 6.1 13.0 0.00 0.00 0.00 98 1009.6
20260510080148 67 162 6.1 12.2 0.00 0.00 0.00 98 1003.4
20260510075648 67 184 5.2 12.2 0.00 0.00 0.00 99 1003.4
20260510075148 67 194 4.3 11.3 0.00 0.00 0.00 99 1003.3
20260510074648 67 178 5.2 11.3 0.00 0.00 0.00 99 1003.3
20260510074418 67 147 6.1 11.3 0.00 0.00 0.00 99 1003.3
20260510073647 67 192 7.0 11.3 0.00 0.00 0.00 99 1003.1
20260510073148 67 194 7.0 9.6 0.00 0.00 0.00 100 1003.1
20260510072647 66 204 7.8 14.8 0.00 0.00 0.00 100 1003.0
20260510072147 66 157 8.7 14.8 0.00 0.00 0.00 100 1002.9
20260510071647 66 192 8.7 13.9 0.00 0.00 0.00 100 1002.9
20260510071147 66 226 8.7 15.6 0.00 0.00 0.00 100 1002.8
20260510070647 66 223 8.7 15.6 0.00 0.00 0.00 100 1002.8
20260510070148 65 166 8.7 14.8 0.00 0.00 0.00 100 1002.6
20260510065648 65 170 7.8 14.8 0.00 0.00 0.00 100 1002.6
20260510065404 65 157 7.0 13.9 0.00 0.00 0.00 100 1002.6
20260510064648 65 232 6.1 13.9 0.00 0.00 0.00 100 1002.4
20260510064405 65 202 7.0 13.9 0.00 0.00 0.00 100 1002.6
20260510063648 65 169 7.8 13.9 0.00 0.00 0.00 100 1002.5
20260510063148 64 192 7.0 13.9 0.00 0.00 0.00 100 1002.5
20260510062648 64 189 7.0 13.0 0.00 0.00 0.00 100 1002.4
20260510062148 64 180 6.1 13.0 0.00 0.00 0.00 100 1002.3
20260510061148 64 203 7.0 13.0 0.00 0.00 0.00 100 1008.6
20260510060648 64 168 7.0 13.0 0.00 0.00 0.00 100 1002.2
20260510060147 64 196 8.7 14.8 0.00 0.00 0.00 100 1002.1
20260510055147 64 150 8.7 13.9 0.00 0.00 0.00 100 1002.1
20260510054414 64 181 9.6 15.6 0.00 0.00 0.00 100 1002.1
20260510053648 64 150 8.7 13.0 0.00 0.00 0.00 100 1002.1
20260510053148 64 171 7.0 13.0 0.00 0.00 0.00 100 1002.1
20260510052148 64 167 7.8 13.0 0.00 0.00 0.00 100 1002.1
20260510051648 64 180 7.8 13.0 0.00 0.00 0.00 99 1002.0
20260510051148 64 166 7.8 13.9 0.00 0.00 0.00 99 1001.9
20260510050647 64 167 8.7 15.6 0.00 0.00 0.00 99 1001.9
20260510050147 63 163 8.7 15.6 0.00 0.00 0.00 98 1002.0
20260510045147 63 166 7.0 13.0 0.00 0.00 0.00 98 1001.9
20260510044147 63 161 5.2 9.6 0.00 0.00 0.00 98 1002.0
20260510043648 64 119 5.2 9.6 0.00 0.00 0.00 98 1002.0
20260510043148 64 128 5.2 8.7 0.00 0.00 0.00 99 1002.0
20260510042647 64 139 5.2 9.6 0.00 0.00 0.00 99 1002.0
20260510042147 64 115 6.1 9.6 0.00 0.00 0.00 99 1002.0
20260510041647 64 137 7.8 13.9 0.00 0.00 0.00 100 1002.0
20260510041147 64 169 8.7 13.9 0.00 0.00 0.00 99 1002.1
20260510040647 64 177 7.8 12.2 0.00 0.00 0.00 99 1002.1
20260510040148 64 171 7.0 13.9 0.00 0.00 0.00 100 1002.1
20260510035647 64 128 7.0 13.9 0.00 0.00 0.00 100 1002.1
20260510035147 64 186 7.0 12.2 0.00 0.00 0.00 100 1002.1
20260510034647 65 157 7.0 11.3 0.00 0.00 0.00 100 1002.1
20260510034147 65 153 6.1 11.3 0.00 0.00 0.00 100 1002.1
20260510033649 65 182 6.1 10.4 0.00 0.00 0.00 100 1002.1
20260510033147 65 121 6.1 10.4 0.00 0.00 0.00 100 1002.1
20260510032648 65 178 7.0 10.4 0.00 0.00 0.00 100 1002.1
20260510032147 65 184 7.8 8.7 0.00 0.00 0.00 100 1002.0
20260510031647 65 177 7.8 13.0 0.00 0.00 0.00 99 1002.1
20260510031147 65 188 7.8 13.0 0.00 0.00 0.00 99 1002.0
20260510030907 65 163 8.7 14.8 0.00 0.00 0.00 99 1002.1
20260510030147 65 188 9.6 15.6 0.00 0.00 0.00 99 1002.0
20260510025648 65 186 7.8 15.6 0.00 0.00 0.00 99 1002.0
20260510025147 65 152 7.0 13.0 0.00 0.00 0.00 99 1001.9
20260510024647 65 171 5.2 9.6 0.00 0.00 0.00 99 1001.9
20260510024147 65 150 5.2 8.7 0.00 0.00 0.00 99 1002.0
20260510023647 65 135 5.2 8.7 0.00 0.00 0.00 99 1001.9
20260510023147 65 180 6.1 13.0 0.00 0.00 0.00 99 1001.9
20260510022904 65 166 5.2 13.0 0.00 0.00 0.00 99 1002.0
20260510022137 65 148 4.3 9.6 0.00 0.00 0.00 99 1002.0
20260510021638 65 188 5.2 7.8 0.00 0.00 0.00 99 1002.0
20260510021138 65 143 6.1 10.4 0.00 0.00 0.00 99 1002.1
20260510020638 65 178 6.1 10.4 0.00 0.00 0.00 99 1008.3
20260510020137 65 144 6.1 14.8 0.00 0.00 0.00 99 1002.1
20260510015637 65 112 6.1 14.8 0.00 0.00 0.00 99 1002.1
20260510015137 65 152 6.1 12.2 0.00 0.00 0.00 99 1002.0
20260510014637 65 184 6.1 13.9 0.00 0.00 0.00 99 1002.0
20260510014138 65 146 5.2 13.9 0.00 0.00 0.00 99 1002.0
20260510013638 65 167 5.2 9.6 0.00 0.00 0.00 100 1002.0
20260510013137 65 147 5.2 9.6 0.00 0.00 0.00 100 1002.0
20260510012638 65 168 6.1 9.6 0.00 0.00 0.00 100 1002.1
20260510012137 65 149 5.2 9.6 0.00 0.00 0.00 100 1002.1
20260510011638 65 171 4.3 11.3 0.00 0.00 0.00 100 1002.1
20260510011138 65 138 6.1 11.3 0.00 0.00 0.00 100 1002.2
20260510010637 65 145 7.8 16.5 0.00 0.00 0.00 100 1002.2
20260510010400 65 170 7.8 16.5 0.00 0.00 0.00 100 1002.2
20260510005638 66 171 9.6 9.6 0.00 0.00 0.00 100 1002.2
20260510005138 66 163 10.4 19.1 0.00 0.00 0.00 100 1002.2
20260510004138 66 132 8.7 20.9 0.00 0.00 0.00 100 1002.1
20260510003637 66 171 9.6 20.9 0.00 0.00 0.00 100 1002.0
20260510003138 66 155 8.7 15.6 0.00 0.00 0.00 100 1002.1
20260510002636 66 154 8.7 13.9 0.00 0.00 0.00 100 1002.0
20260510002137 66 157 8.7 19.1 0.00 0.00 0.00 100 1002.0
20260510001635 66 132 7.8 17.4 0.00 0.00 0.00 100 1008.3
20260510001135 67 150 7.8 17.4 0.00 0.00 0.00 100 1002.0
20260510000634 67 141 8.7 20.9 0.00 0.00 0.00 100 1002.0
20260510000132 67 171 9.6 20.9 0.00 0.00 0.00 100 1002.0
20260509235633 67 183 9.6 21.7 0.00 0.00 0.00 100 1002.1
20260509235134 67 98 9.6 21.7 0.00 0.00 0.00 100 1002.1
20260509234631 67 123 9.6 20.0 0.00 0.00 0.00 100 1002.1
20260509234125 67 169 8.7 16.5 0.00 0.00 0.00 100 1002.1
20260509233622 67 145 8.7 16.5 0.00 0.00 0.00 100 1002.1
20260509233121 67 172 8.7 15.6 0.00 0.00 0.00 100 1001.9
20260509232623 67 200 7.8 15.6 0.00 0.00 0.00 100 1002.0
20260509232133 67 186 7.0 10.4 0.00 0.00 0.00 100 1002.1
20260509231623 67 190 7.0 15.6 0.00 0.00 0.00 100 1002.1
20260509231120 67 105 7.0 15.6 0.00 0.00 0.00 100 1002.1
20260509230622 67 158 7.8 14.8 0.00 0.00 0.00 100 1002.2
20260509230121 67 174 6.1 13.0 0.00 0.00 0.00 100 1002.3
20260509225624 67 182 5.2 11.3 0.00 0.00 0.00 100 1002.4
20260509225121 67 128 5.2 11.3 0.00 0.00 0.00 100 1002.4
20260509224624 67 126 6.1 13.0 0.00 0.00 0.00 100 1002.4
20260509224120 67 145 7.0 13.0 0.00 0.00 0.00 100 1002.4
20260509223847 67 132 6.1 12.2 0.00 0.00 0.00 100 1002.4
20260509223336 66 161 3.5 10.4 0.00 0.00 0.00 100 1002.5
20260509222623 66 158 2.6 9.6 0.00 0.00 0.00 100 1002.6
20260509222120 66 125 4.3 9.6 0.00 0.00 0.00 100 1002.6
20260509221623 66 159 5.2 8.7 0.00 0.00 0.00 100 1002.6
20260509221121 66 121 4.3 9.6 0.00 0.00 0.00 100 1002.6
20260509220627 65 145 2.6 9.6 0.00 0.00 0.00 100 1002.6
20260509220121 66 90 1.7 6.1 0.00 0.00 0.00 100 1002.6
20260509215619 66 99 1.7 4.3 0.00 0.00 0.00 100 1002.8
20260509215332 67 146 0.9 3.5 0.00 0.00 0.00 100 1002.8
20260509214615 67 271 0.9 1.7 0.00 0.00 0.00 100 1002.7
20260509214113 67 271 0.9 2.6 0.00 0.00 0.00 100 1002.7
20260509213845 67 271 0.9 2.6 0.00 0.00 0.00 100 1002.7
20260509213112 67 268 0.9 3.5 0.00 0.00 0.00 100 1002.6
20260509212615 67 268 1.7 3.5 0.00 0.00 0.00 100 1002.6
20260509212114 68 269 1.7 7.8 0.00 0.00 0.00 100 1002.5
20260509211843 68 242 3.5 7.8 0.00 0.00 0.00 100 1002.4
20260509211114 68 183 4.3 7.8 0.00 0.00 0.00 100 1002.5
20260509210617 68 153 6.1 10.4 0.00 0.00 0.00 100 1002.4
20260509210115 68 148 5.2 10.4 0.00 0.00 0.00 100 1002.5
20260509205620 68 170 2.6 9.6 0.00 0.00 0.00 100 1002.5
20260509205114 68 136 2.6 7.8 0.00 0.00 0.00 100 1002.5
20260509204617 69 98 2.6 8.7 0.00 0.00 0.00 100 1002.6
20260509204113 69 148 2.6 8.7 0.00 0.00 0.00 100 1002.5
20260509203614 69 131 5.2 7.0 0.00 0.00 0.00 100 1002.6
20260509203111 69 123 6.1 13.0 0.00 0.00 0.00 100 1002.5
20260509202842 69 138 3.5 13.0 0.00 0.00 0.00 99 1002.5
20260509202111 69 121 0.9 3.5 0.00 0.00 0.00 100 1002.5
20260509201112 70 80 2.6 13.0 0.00 0.00 0.00 100 1002.4
20260509200851 70 126 5.2 13.0 0.00 0.00 0.00 99 1002.3
20260509200113 70 172 6.1 13.0 0.00 0.00 0.00 99 1002.2
20260509195615 70 105 4.3 13.0 0.00 0.00 0.00 99 1002.1
20260509195111 70 61 3.5 7.8 0.00 0.00 0.00 99 1002.0
20260509194614 70 113 3.5 7.8 0.00 0.00 0.00 99 1002.0
20260509194112 70 126 3.5 7.8 0.00 0.00 0.00 98 1002.1
20260509193615 71 101 3.5 7.8 0.00 0.00 0.00 98 1002.2
20260509193112 71 113 4.3 7.8 0.00 0.00 0.00 98 1002.2
20260509192614 71 111 4.3 9.6 0.00 0.00 0.00 97 1002.1
20260509192111 71 139 5.2 9.6 0.00 0.00 0.00 97 1002.2
20260509191614 71 140 4.3 8.7 0.00 0.00 0.00 97 1002.2
20260509191111 71 101 4.3 8.7 0.00 0.00 0.00 97 1002.1
20260509190614 71 92 4.3 8.7 0.00 0.00 0.00 97 1002.0
20260509190111 71 138 4.3 7.8 0.00 0.00 0.00 97 1002.0
20260509185614 71 96 5.2 13.0 0.00 0.00 0.00 96 1001.9
20260509185110 71 174 5.2 13.0 0.00 0.00 0.00 96 1001.9
20260509184607 71 143 6.1 13.0 0.00 0.00 0.00 97 1001.9
20260509184107 71 109 6.1 13.0 0.00 0.00 0.00 97 1001.9
20260509183827 71 121 5.2 13.0 0.00 0.00 0.00 97 1001.9
20260509183106 71 119 3.5 13.0 0.00 0.00 0.00 99 1001.9
20260509182823 71 74 1.7 5.2 0.00 0.00 0.00 100 1001.8
20260509182106 72 118 1.7 4.3 0.00 0.00 0.00 100 1001.9
20260509181606 72 73 0.9 3.5 0.00 0.00 0.00 100 1001.8
20260509181120 72 117 0.0 2.6 0.00 0.00 0.00 100 1001.8
20260509180601 72 117 0.0 2.6 0.00 0.00 0.00 100 1001.7
20260509175556 73 118 0.9 1.7 0.00 0.00 0.00 99 1001.6
20260509175322 73 118 0.9 5.2 0.00 0.00 0.00 98 1001.5
20260509174556 73 118 1.7 5.2 0.00 0.00 0.00 97 1001.5
20260509174049 73 108 1.7 7.0 0.00 0.00 0.00 97 1001.4
20260509173812 73 105 1.7 7.0 0.00 0.00 0.00 96 1001.3
20260509173311 73 281 0.9 5.2 0.00 0.00 0.00 97 1001.3
20260509172816 73 136 0.9 2.6 0.00 0.02 0.00 96 1001.3
20260509172048 73 136 0.9 3.5 0.00 0.03 0.00 97 1001.4
20260509171543 73 135 0.9 3.5 0.00 0.05 0.00 96 1001.3
20260509171053 73 135 1.7 6.1 0.00 0.06 0.00 96 1001.2
20260509170534 73 134 2.6 6.1 0.00 0.06 0.00 96 1001.1
20260509170033 73 134 2.6 5.2 0.00 0.06 0.00 96 1001.1
20260509165533 73 148 3.5 7.8 0.00 0.06 0.00 96 1001.0
20260509165034 73 175 3.5 7.8 0.00 0.06 0.00 96 1001.0
20260509164534 73 142 4.3 9.6 0.00 0.06 0.00 96 1001.0